Location: Gälforsberget
(66.6500°N, 22.4167°E)
Time: 21:35:12
(UTC+00:00)

CZ-2C R/B - Pass Details

Date: 11 April 2026
Orbit: 781 x 868 km, 98.4° (Epoch: 16 May)

Event Time Altitude Azimuth Distance (km) Brightness Sun altitude
Exits shadow 23:44:21 17° 219° (SW) 2,030 4.1 -13.6°
Maximum altitude 23:47:42 31° 270° (W) 1,472 3.8 -13.5°
Drops below altitude 10° 23:52:34 10° 332° (NNW) 2,478 5.7 -13.3°
Sets 23:55:13 0° 343° (NNW) 3,402 6.7 -13.2°
